DW6178 Weather Reports


Display with metric or nautical units.
time (UTC)temp
F
wind
direction
speed
MPH
gust
MPH
rain 1hr
in
rain 24hr
in
rain mn
in
humidity
%
barometer
mb
20260903161611 62 303 0.0 2.0 0.00 0.00 0.00 21 1011.7
20260903160042 61 217 0.0 2.0 0.00 0.00 0.00 31 1011.6
20260903154531 60 221 0.0 2.0 0.00 0.00 0.00 32 1011.6
20260903153009 59 346 0.0 1.0 0.00 0.00 0.00 32 1011.6
20260903151505 58 303 0.0 1.0 0.00 0.00 0.00 33 1011.6
20260903150045 58 298 0.0 3.0 0.00 0.00 0.00 33 1011.5
20260903144539 57 307 0.0 2.0 0.00 0.00 0.00 34 1011.4
20260903143017 57 300 0.0 2.0 0.00 0.00 0.00 32 1011.2
20260903141518 57 302 0.0 2.0 0.00 0.00 0.00 26 1011.1
20260903140101 56 298 1.0 3.0 0.00 0.00 0.00 29 1010.8
20260903134554 56 294 0.0 2.0 0.00 0.00 0.00 33 1010.7
20260903133049 56 294 0.0 1.0 0.00 0.00 0.00 34 1010.6
20260903131543 56 288 0.0 2.0 0.00 0.00 0.00 30 1010.4
20260903130039 57 290 0.0 3.0 0.00 0.00 0.00 29 1010.3
20260903124534 57 295 1.0 2.0 0.00 0.00 0.00 27 1010.3
20260903123036 58 280 1.0 3.0 0.00 0.00 0.00 24 1010.4
20260903121528 59 240 2.0 5.0 0.00 0.00 0.00 24 1010.4
20260903120022 58 253 2.0 4.0 0.00 0.00 0.00 25 1010.4
20260903114614 58 190 1.0 4.0 0.00 0.00 0.00 27 1010.5
20260903113106 58 257 2.0 5.0 0.00 0.00 0.00 27 1010.6
20260903111535 59 263 1.0 4.0 0.00 0.00 0.00 25 1010.7
20260903110031 58 263 2.0 5.0 0.00 0.00 0.00 25 1010.9
20260903104609 57 287 1.0 3.0 0.00 0.00 0.00 30 1011.0
20260903103005 57 278 1.0 3.0 0.00 0.00 0.00 32 1011.2
20260903101545 57 264 1.0 3.0 0.00 0.00 0.00 34 1011.3
20260903100039 57 290 1.0 6.0 0.00 0.00 0.00 34 1011.5
20260903094517 57 295 1.0 4.0 0.00 0.00 0.00 34 1011.8
20260903093033 58 258 1.0 3.0 0.00 0.00 0.00 28 1012.0
20260903091550 58 215 1.0 3.0 0.00 0.00 0.00 20 1012.1
20260903090047 58 246 1.0 2.0 0.00 0.00 0.00 13 1012.3
20260903084531 58 285 1.0 4.0 0.00 0.00 0.00 10 1012.5
20260903083020 58 253 1.0 3.0 0.00 0.00 0.00 7 1012.6
20260903081559 57 284 1.0 3.0 0.00 0.00 0.00 5 1012.6
20260903080054 57 289 1.0 3.0 0.00 0.00 0.00 5 1012.7
20260903074535 57 287 0.0 2.0 0.00 0.00 0.00 3 1012.7
20260903073027 58 288 1.0 3.0 0.00 0.00 0.00 100 1012.7
20260903071515 58 283 1.0 3.0 0.00 0.00 0.00 100 1012.5
20260903070002 58 288 1.0 4.0 0.00 0.00 0.00 1 1012.7
20260903064540 58 283 1.0 3.0 0.00 0.00 0.00 2 1012.8
20260903063036 57 169 1.0 5.0 0.00 0.00 0.00 6 1012.7
20260903061521 58 262 1.0 2.0 0.00 0.00 0.00 8 1012.7
20260903060016 58 255 1.0 2.0 0.00 0.00 0.00 8 1012.8
20260903054519 58 248 1.0 3.0 0.00 0.00 0.00 7 1012.8
20260903053007 58 278 1.0 2.0 0.00 0.00 0.00 9 1012.9
20260903051503 58 290 1.0 3.0 0.00 0.00 0.00 10 1012.9
20260903050100 59 285 1.0 2.0 0.00 0.00 0.00 10 1013.0
20260903044600 59 290 1.0 2.0 0.00 0.00 0.00 10 1012.9
20260903043049 59 287 0.0 1.0 0.00 0.00 0.00 12 1012.7
20260903041528 59 293 1.0 2.0 0.00 0.00 0.00 10 1012.6
20260903040023 60 287 0.0 2.0 0.00 0.00 0.00 9 1012.5
20260903034503 60 293 1.0 2.0 0.00 0.00 0.00 8 1012.3
20260903033058 61 293 1.0 2.0 0.00 0.00 0.00 7 1012.2
20260903031537 60 290 1.0 2.0 0.00 0.00 0.00 8 1012.1
20260903030034 60 290 1.0 2.0 0.00 0.00 0.00 11 1012.0
20260903024517 59 200 0.0 0.0 0.00 0.00 0.00 17 1011.9
20260903023016 59 200 0.0 0.0 0.00 0.00 0.00 18 1011.6
20260903021558 59 200 0.0 0.0 0.00 0.00 0.00 21 1011.6
20260903020100 60 200 0.0 1.0 0.00 0.00 0.00 27 1011.4
20260903014604 60 207 0.0 2.0 0.00 0.00 0.00 28 1011.4
20260903013046 60 215 2.0 4.0 0.00 0.00 0.00 37 1011.4
20260903011545 61 203 1.0 4.0 0.00 0.00 0.00 58 1011.4
20260903010045 62 197 1.0 5.0 0.00 0.00 0.00 60 1011.4
20260903004546 63 204 2.0 4.0 0.00 0.00 0.00 56 1011.4
20260903003042 64 198 2.0 6.0 0.00 0.00 0.00 49 1011.5
20260903001540 64 190 2.0 6.0 0.00 0.00 0.00 51 1011.6
20260903000039 65 190 3.0 7.0 0.00 0.00 0.00 48 1011.7
20260902234520 65 231 2.0 7.0 0.00 0.00 0.00 45 1011.8
20260902233019 65 166 2.0 6.0 0.00 0.00 0.00 48 1011.9
20260902231600 65 181 3.0 9.0 0.00 0.00 0.00 49 1012.0
20260902230108 65 221 3.0 10.0 0.00 0.00 0.00 48 1012.2
20260902224545 66 195 2.0 8.0 0.00 0.00 0.00 47 1012.2
20260902223037 68 183 5.0 9.0 0.00 0.00 0.00 44 1012.4
20260902221519 68 183 2.0 8.0 0.00 0.00 0.00 41 1012.6
20260902220017 68 179 2.0 8.0 0.00 0.00 0.00 41 1012.7
20260902214558 69 193 4.0 7.0 0.00 0.00 0.00 37 1012.9
20260902213106 70 203 4.0 9.0 0.00 0.00 0.00 26 1013.1
20260902211536 71 194 3.0 8.0 0.00 0.00 0.00 25 1013.2
20260902210050 71 210 3.0 8.0 0.00 0.00 0.00 23 1013.3
20260902204517 71 186 2.0 7.0 0.00 0.00 0.00 22 1013.4
20260902203016 71 200 2.0 9.0 0.00 0.00 0.00 24 1013.4
20260902201556 70 200 2.0 8.0 0.00 0.00 0.00 27 1013.5
20260902200054 70 163 3.0 8.0 0.00 0.00 0.00 27 1013.6
20260902194538 69 181 3.0 8.0 0.00 0.00 0.00 26 1013.9
20260902193034 68 176 3.0 8.0 0.00 0.00 0.00 28 1013.9
20260902191515 68 233 4.0 7.0 0.00 0.00 0.00 24 1014.0
20260902190010 68 181 2.0 8.0 0.00 0.00 0.00 21 1014.1
20260902184602 67 180 3.0 9.0 0.00 0.00 0.00 26 1014.3
20260902183052 66 165 3.0 6.0 0.00 0.00 0.00 25 1014.4
20260902181526 65 165 2.0 6.0 0.00 0.00 0.00 25 1014.4
20260902180024 64 212 2.0 7.0 0.00 0.00 0.00 25 1014.6
20260902174506 64 185 2.0 6.0 0.00 0.00 0.00 22 1014.5
20260902173004 64 192 2.0 5.0 0.00 0.00 0.00 22 1014.6
20260902171604 63 177 2.0 5.0 0.00 0.00 0.00 22 1014.4
20260902170044 63 180 1.0 7.0 0.00 0.00 0.00 22 1014.3
20260902164542 63 169 2.0 5.0 0.00 0.00 0.00 22 1014.1
20260902163019 62 188 1.0 5.0 0.00 0.00 0.00 22 1014.0